Location: Unnamed
(48.6007°N, 2.4808°E)
Time: 20:15:15
(UTC+02:00)

DX 1 - Pass Details

Date: 06 April 2023
Orbit: 615 x 625 km, 98.4° (Epoch: 04 June)

Event Time Altitude Azimuth Distance (km) Brightness Sun altitude
Rises 23:19:45 0° 26° (NNE) 2,899 ? -25.5°
Reaches altitude 10° 23:22:20 10° 41° (NE) 1,988 ? -25.8°
Enters shadow 23:22:44 12° 45° (NE) 1,866 ? -25.8°
